| time (UTC) | temp F | wind direction | speed MPH | gust MPH | rain 1hr in | rain 24hr in | rain mn in | humidity % | barometer mb |
| 20260510150516 | 63 | 290 | 0.0 | 4.0 | 0.00 | 0.00 | 0.00 | 78 | 1013.9 |
| 20260510145516 | 62 | 293 | 1.0 | 3.0 | 0.00 | 0.00 | 0.00 | 78 | 1013.9 |
| 20260510144516 | 62 | 0.0 | 0.0 | 0.00 | 0.00 | 0.00 | 79 | 1013.9 | |
| 20260510143517 | 62 | 17 | 0.0 | 2.0 | 0.00 | 0.00 | 0.00 | 79 | 1013.7 |
| 20260510142517 | 62 | 0.0 | 2.0 | 0.00 | 0.00 | 0.00 | 79 | 1013.6 | |
| 20260510141516 | 62 | 321 | 1.0 | 6.0 | 0.00 | 0.00 | 0.00 | 79 | 1013.6 |
| 20260510140516 | 62 | 2 | 3.0 | 5.0 | 0.00 | 0.00 | 0.00 | 80 | 1013.5 |
| 20260510135536 | 61 | 0.0 | 1.0 | 0.00 | 0.00 | 0.00 | 80 | 1013.4 | |
| 20260510134537 | 61 | 355 | 2.0 | 5.0 | 0.00 | 0.00 | 0.00 | 81 | 1013.3 |
| 20260510133516 | 61 | 320 | 1.0 | 4.0 | 0.00 | 0.00 | 0.00 | 81 | 1013.2 |
| 20260510132516 | 61 | 259 | 0.0 | 2.0 | 0.00 | 0.00 | 0.00 | 81 | 1013.2 |
| 20260510131516 | 61 | 205 | 0.0 | 2.0 | 0.00 | 0.00 | 0.00 | 81 | 1013.1 |
| 20260510130516 | 61 | 0.0 | 3.0 | 0.00 | 0.00 | 0.00 | 81 | 1013.1 | |
| 20260510125517 | 61 | 210 | 1.0 | 2.0 | 0.00 | 0.00 | 0.00 | 81 | 1013.0 |
| 20260510124536 | 61 | 0.0 | 0.0 | 0.00 | 0.00 | 0.00 | 81 | 1013.1 | |
| 20260510123516 | 61 | 0.0 | 0.0 | 0.00 | 0.00 | 0.00 | 81 | 1013.1 | |
| 20260510122517 | 61 | 0.0 | 0.0 | 0.00 | 0.00 | 0.00 | 81 | 1013.1 | |
| 20260510121536 | 61 | 0.0 | 0.0 | 0.00 | 0.00 | 0.00 | 81 | 1013.1 | |
| 20260510120516 | 61 | 0.0 | 0.0 | 0.00 | 0.00 | 0.00 | 81 | 1013.1 | |
| 20260510115516 | 61 | 0.0 | 0.0 | 0.00 | 0.00 | 0.00 | 81 | 1013.0 | |
| 20260510114536 | 61 | 0.0 | 0.0 | 0.00 | 0.00 | 0.00 | 81 | 1013.0 | |
| 20260510113557 | 61 | 0.0 | 0.0 | 0.00 | 0.00 | 0.00 | 81 | 1013.0 | |
| 20260510112516 | 61 | 0.0 | 3.0 | 0.00 | 0.00 | 0.00 | 81 | 1013.0 | |
| 20260510111536 | 61 | 256 | 1.0 | 4.0 | 0.00 | 0.00 | 0.00 | 82 | 1013.0 |
| 20260510110516 | 61 | 271 | 2.0 | 4.0 | 0.00 | 0.00 | 0.00 | 82 | 1013.1 |
| 20260510105516 | 61 | 102 | 0.0 | 3.0 | 0.00 | 0.00 | 0.00 | 82 | 1013.1 |
| 20260510104658 | 61 | 102 | 1.0 | 3.0 | 0.00 | 0.00 | 0.00 | 82 | 1013.1 |
| 20260510103536 | 61 | 103 | 0.0 | 1.0 | 0.00 | 0.00 | 0.00 | 82 | 1013.2 |
| 20260510102516 | 61 | 103 | 1.0 | 3.0 | 0.00 | 0.00 | 0.00 | 82 | 1013.2 |
| 20260510101516 | 61 | 104 | 0.0 | 2.0 | 0.00 | 0.00 | 0.00 | 82 | 1013.2 |
| 20260510100536 | 61 | 103 | 0.0 | 3.0 | 0.00 | 0.00 | 0.00 | 82 | 1013.2 |
| 20260510095516 | 61 | 0.0 | 0.0 | 0.00 | 0.00 | 0.00 | 82 | 1013.3 | |
| 20260510094516 | 61 | 104 | 1.0 | 4.0 | 0.00 | 0.00 | 0.00 | 81 | 1013.3 |
| 20260510093556 | 61 | 155 | 1.0 | 3.0 | 0.00 | 0.00 | 0.00 | 81 | 1013.3 |
| 20260510092536 | 61 | 0.0 | 2.0 | 0.00 | 0.00 | 0.00 | 81 | 1013.3 | |
| 20260510091516 | 61 | 197 | 1.0 | 2.0 | 0.00 | 0.00 | 0.00 | 81 | 1013.4 |
| 20260510090516 | 62 | 230 | 1.0 | 4.0 | 0.00 | 0.00 | 0.00 | 80 | 1013.5 |
| 20260510085516 | 62 | 0.0 | 0.0 | 0.00 | 0.00 | 0.00 | 80 | 1013.5 | |
| 20260510084515 | 62 | 239 | 1.0 | 4.0 | 0.00 | 0.00 | 0.00 | 80 | 1013.6 |
| 20260510083536 | 62 | 200 | 0.0 | 1.0 | 0.00 | 0.00 | 0.00 | 80 | 1013.7 |
| 20260510082515 | 62 | 198 | 2.0 | 5.0 | 0.00 | 0.00 | 0.00 | 80 | 1013.8 |
| 20260510081536 | 62 | 158 | 3.0 | 5.0 | 0.00 | 0.00 | 0.00 | 80 | 1013.7 |
| 20260510080516 | 62 | 0.0 | 1.0 | 0.00 | 0.00 | 0.00 | 80 | 1013.8 | |
| 20260510075516 | 62 | 165 | 0.0 | 5.0 | 0.00 | 0.00 | 0.00 | 80 | 1013.9 |
| 20260510074535 | 62 | 195 | 1.0 | 4.0 | 0.00 | 0.00 | 0.00 | 80 | 1013.9 |
| 20260510073515 | 62 | 196 | 1.0 | 3.0 | 0.00 | 0.00 | 0.00 | 80 | 1013.9 |
| 20260510072556 | 62 | 209 | 1.0 | 4.0 | 0.00 | 0.00 | 0.00 | 80 | 1013.9 |
| 20260510071516 | 62 | 216 | 2.0 | 4.0 | 0.00 | 0.00 | 0.00 | 80 | 1014.0 |
| 20260510070515 | 62 | 243 | 0.0 | 4.0 | 0.00 | 0.00 | 0.00 | 80 | 1014.0 |
| 20260510065516 | 62 | 0.0 | 2.0 | 0.00 | 0.00 | 0.00 | 80 | 1014.0 | |
| 20260510064516 | 62 | 0.0 | 0.0 | 0.00 | 0.00 | 0.00 | 80 | 1014.1 | |
| 20260510063516 | 62 | 0.0 | 0.0 | 0.00 | 0.00 | 0.00 | 80 | 1014.2 | |
| 20260510062516 | 62 | 0.0 | 0.0 | 0.00 | 0.00 | 0.00 | 80 | 1014.2 | |
| 20260510061516 | 62 | 0.0 | 0.0 | 0.00 | 0.00 | 0.00 | 80 | 1014.2 | |
| 20260510060536 | 62 | 0.0 | 0.0 | 0.00 | 0.00 | 0.00 | 80 | 1014.2 | |
| 20260510055516 | 62 | 0.0 | 1.0 | 0.00 | 0.00 | 0.00 | 80 | 1014.2 | |
| 20260510054536 | 62 | 242 | 1.0 | 3.0 | 0.00 | 0.00 | 0.00 | 80 | 1014.2 |
| 20260510053516 | 62 | 234 | 1.0 | 3.0 | 0.00 | 0.00 | 0.00 | 80 | 1014.1 |
| 20260510052536 | 61 | 211 | 1.0 | 3.0 | 0.00 | 0.00 | 0.00 | 80 | 1014.1 |
| 20260510051516 | 61 | 203 | 1.0 | 4.0 | 0.00 | 0.00 | 0.00 | 80 | 1014.2 |
| 20260510050516 | 61 | 206 | 3.0 | 5.0 | 0.00 | 0.00 | 0.00 | 80 | 1014.3 |
| 20260510045516 | 62 | 187 | 2.0 | 6.0 | 0.00 | 0.00 | 0.00 | 80 | 1014.2 |
| 20260510044536 | 61 | 198 | 2.0 | 5.0 | 0.00 | 0.00 | 0.00 | 80 | 1014.2 |
| 20260510043517 | 61 | 197 | 2.0 | 5.0 | 0.00 | 0.00 | 0.00 | 80 | 1014.2 |
| 20260510042516 | 61 | 179 | 3.0 | 5.0 | 0.00 | 0.00 | 0.00 | 80 | 1014.1 |
| 20260510041536 | 61 | 213 | 1.0 | 3.0 | 0.00 | 0.00 | 0.00 | 80 | 1014.0 |
| 20260510040536 | 61 | 207 | 1.0 | 4.0 | 0.00 | 0.00 | 0.00 | 80 | 1013.9 |
| 20260510035516 | 61 | 206 | 3.0 | 6.0 | 0.00 | 0.00 | 0.00 | 80 | 1013.7 |
| 20260510034516 | 62 | 216 | 2.0 | 6.0 | 0.00 | 0.00 | 0.00 | 80 | 1013.4 |
| 20260510033537 | 62 | 230 | 2.0 | 5.0 | 0.00 | 0.00 | 0.00 | 80 | 1013.2 |
| 20260510032516 | 62 | 202 | 3.0 | 6.0 | 0.00 | 0.00 | 0.00 | 80 | 1013.1 |
| 20260510031557 | 62 | 182 | 4.0 | 6.0 | 0.00 | 0.00 | 0.00 | 79 | 1013.0 |
| 20260510030516 | 62 | 197 | 4.0 | 7.0 | 0.00 | 0.00 | 0.00 | 79 | 1013.0 |
| 20260510025536 | 63 | 193 | 5.0 | 7.0 | 0.00 | 0.00 | 0.00 | 78 | 1012.9 |
| 20260510024516 | 63 | 202 | 4.0 | 7.0 | 0.00 | 0.00 | 0.00 | 78 | 1012.9 |
| 20260510023516 | 63 | 206 | 3.0 | 7.0 | 0.00 | 0.00 | 0.00 | 77 | 1012.8 |
| 20260510022516 | 64 | 225 | 3.0 | 8.0 | 0.00 | 0.00 | 0.00 | 77 | 1012.8 |
| 20260510021536 | 64 | 194 | 3.0 | 7.0 | 0.00 | 0.00 | 0.00 | 76 | 1012.8 |
| 20260510020536 | 64 | 208 | 3.0 | 9.0 | 0.00 | 0.00 | 0.00 | 76 | 1012.8 |
| 20260510015536 | 64 | 216 | 5.0 | 12.0 | 0.00 | 0.00 | 0.00 | 75 | 1012.8 |
| 20260510014536 | 65 | 196 | 6.0 | 12.0 | 0.00 | 0.00 | 0.00 | 74 | 1012.8 |
| 20260510013516 | 65 | 215 | 5.0 | 9.0 | 0.00 | 0.00 | 0.00 | 74 | 1012.9 |
| 20260510012536 | 66 | 212 | 6.0 | 10.0 | 0.00 | 0.00 | 0.00 | 73 | 1012.9 |
| 20260510011516 | 66 | 211 | 6.0 | 11.0 | 0.00 | 0.00 | 0.00 | 73 | 1012.9 |
| 20260510010536 | 66 | 203 | 6.0 | 11.0 | 0.00 | 0.00 | 0.00 | 73 | 1012.9 |
| 20260510005516 | 67 | 192 | 6.0 | 13.0 | 0.00 | 0.00 | 0.00 | 72 | 1012.8 |
| 20260510004536 | 67 | 224 | 4.0 | 12.0 | 0.00 | 0.00 | 0.00 | 71 | 1012.8 |
| 20260510003516 | 68 | 226 | 5.0 | 11.0 | 0.00 | 0.00 | 0.00 | 71 | 1012.7 |
| 20260510002516 | 68 | 217 | 5.0 | 10.0 | 0.00 | 0.00 | 0.00 | 70 | 1012.7 |
| 20260510001556 | 68 | 221 | 4.0 | 11.0 | 0.00 | 0.00 | 0.00 | 70 | 1012.8 |
| 20260510000536 | 68 | 206 | 5.0 | 12.0 | 0.00 | 0.00 | 0.00 | 71 | 1012.7 |
| 20260509235536 | 68 | 199 | 7.0 | 13.0 | 0.00 | 0.00 | 0.00 | 70 | 1012.6 |
| 20260509234536 | 69 | 180 | 6.0 | 12.0 | 0.00 | 0.00 | 0.00 | 69 | 1012.6 |
| 20260509233536 | 69 | 231 | 4.0 | 12.0 | 0.00 | 0.00 | 0.00 | 68 | 1012.6 |
| 20260509232515 | 69 | 222 | 4.0 | 11.0 | 0.00 | 0.00 | 0.00 | 69 | 1012.7 |
| 20260509231515 | 69 | 246 | 3.0 | 14.0 | 0.00 | 0.00 | 0.00 | 69 | 1012.7 |
| 20260509230516 | 70 | 187 | 7.0 | 14.0 | 0.00 | 0.00 | 0.00 | 68 | 1012.7 |
| 20260509225516 | 70 | 197 | 6.0 | 13.0 | 0.00 | 0.00 | 0.00 | 68 | 1012.9 |
| 20260509224537 | 70 | 211 | 6.0 | 12.0 | 0.00 | 0.00 | 0.00 | 67 | 1013.0 |
| 20260509223515 | 71 | 210 | 7.0 | 16.0 | 0.00 | 0.00 | 0.00 | 67 | 1013.0 |
| 20260509222536 | 70 | 180 | 9.0 | 15.0 | 0.00 | 0.00 | 0.00 | 67 | 1013.0 |
| 20260509221515 | 71 | 174 | 9.0 | 17.0 | 0.00 | 0.00 | 0.00 | 65 | 1013.1 |
| 20260509220536 | 73 | 180 | 9.0 | 16.0 | 0.00 | 0.00 | 0.00 | 63 | 1013.2 |
| 20260509215516 | 73 | 216 | 5.0 | 17.0 | 0.00 | 0.00 | 0.00 | 64 | 1013.2 |
| 20260509214536 | 73 | 200 | 6.0 | 16.0 | 0.00 | 0.00 | 0.00 | 63 | 1013.2 |
| 20260509213515 | 73 | 211 | 6.0 | 16.0 | 0.00 | 0.00 | 0.00 | 64 | 1013.3 |
| 20260509212535 | 72 | 199 | 7.0 | 16.0 | 0.00 | 0.00 | 0.00 | 64 | 1013.4 |
| 20260509211515 | 73 | 198 | 9.0 | 17.0 | 0.00 | 0.00 | 0.00 | 64 | 1013.4 |
| 20260509210516 | 72 | 193 | 8.0 | 16.0 | 0.00 | 0.00 | 0.00 | 64 | 1013.5 |
| 20260509205516 | 72 | 200 | 8.0 | 16.0 | 0.00 | 0.00 | 0.00 | 64 | 1013.6 |
| 20260509204536 | 73 | 188 | 9.0 | 18.0 | 0.00 | 0.00 | 0.00 | 64 | 1013.7 |
| 20260509203536 | 73 | 197 | 8.0 | 14.0 | 0.00 | 0.00 | 0.00 | 63 | 1013.7 |
| 20260509202516 | 73 | 192 | 9.0 | 15.0 | 0.00 | 0.00 | 0.00 | 63 | 1013.7 |
| 20260509201516 | 73 | 210 | 9.0 | 18.0 | 0.00 | 0.00 | 0.00 | 64 | 1013.7 |
| 20260509200516 | 73 | 185 | 11.0 | 19.0 | 0.00 | 0.00 | 0.00 | 63 | 1013.8 |
| 20260509195516 | 73 | 207 | 9.0 | 17.0 | 0.00 | 0.00 | 0.00 | 63 | 1013.7 |
| 20260509194515 | 74 | 182 | 10.0 | 17.0 | 0.00 | 0.00 | 0.00 | 62 | 1013.7 |
| 20260509193516 | 74 | 185 | 10.0 | 19.0 | 0.00 | 0.00 | 0.00 | 62 | 1013.8 |
| 20260509192515 | 74 | 216 | 8.0 | 17.0 | 0.00 | 0.00 | 0.00 | 63 | 1014.0 |
| 20260509191516 | 75 | 178 | 10.0 | 17.0 | 0.00 | 0.00 | 0.00 | 61 | 1014.0 |
| 20260509190515 | 76 | 203 | 8.0 | 15.0 | 0.00 | 0.00 | 0.00 | 60 | 1013.8 |
| 20260509185515 | 76 | 208 | 7.0 | 13.0 | 0.00 | 0.00 | 0.00 | 60 | 1013.9 |
| 20260509184515 | 75 | 209 | 5.0 | 18.0 | 0.00 | 0.00 | 0.00 | 61 | 1014.0 |
| 20260509183536 | 76 | 200 | 8.0 | 14.0 | 0.00 | 0.00 | 0.00 | 60 | 1014.0 |
| 20260509182535 | 76 | 196 | 8.0 | 16.0 | 0.00 | 0.00 | 0.00 | 60 | 1014.1 |
| 20260509181515 | 76 | 172 | 8.0 | 16.0 | 0.00 | 0.00 | 0.00 | 61 | 1014.1 |
| 20260509180515 | 77 | 200 | 7.0 | 12.0 | 0.00 | 0.00 | 0.00 | 60 | 1014.2 |
| 20260509175515 | 77 | 189 | 5.0 | 11.0 | 0.00 | 0.00 | 0.00 | 60 | 1014.2 |
| 20260509174515 | 76 | 205 | 4.0 | 11.0 | 0.00 | 0.00 | 0.00 | 61 | 1014.2 |
| 20260509173515 | 76 | 202 | 5.0 | 10.0 | 0.00 | 0.00 | 0.00 | 61 | 1014.2 |
| 20260509172515 | 76 | 197 | 5.0 | 12.0 | 0.00 | 0.00 | 0.00 | 62 | 1014.2 |
| 20260509171515 | 75 | 175 | 5.0 | 9.0 | 0.00 | 0.00 | 0.00 | 63 | 1014.2 |
| 20260509170515 | 74 | 218 | 5.0 | 9.0 | 0.00 | 0.00 | 0.00 | 64 | 1014.2 |
| 20260509165515 | 73 | 171 | 4.0 | 7.0 | 0.00 | 0.00 | 0.00 | 65 | 1014.2 |
| 20260509164535 | 72 | 155 | 2.0 | 5.0 | 0.00 | 0.00 | 0.00 | 66 | 1014.2 |
| 20260509163515 | 72 | 162 | 3.0 | 7.0 | 0.00 | 0.00 | 0.00 | 67 | 1014.3 |
| 20260509162515 | 71 | 184 | 4.0 | 9.0 | 0.00 | 0.00 | 0.00 | 68 | 1014.4 |
| 20260509161535 | 70 | 138 | 4.0 | 6.0 | 0.00 | 0.00 | 0.00 | 71 | 1014.4 |
| 20260509160535 | 68 | 122 | 2.0 | 6.0 | 0.00 | 0.00 | 0.00 | 74 | 1014.4 |
| 20260509155535 | 66 | 89 | 3.0 | 8.0 | 0.00 | 0.00 | 0.00 | 76 | 1014.4 |
| 20260509154537 | 65 | 100 | 2.0 | 4.0 | 0.00 | 0.00 | 0.00 | 77 | 1014.4 |
| 20260509153535 | 65 | 67 | 1.0 | 5.0 | 0.00 | 0.00 | 0.00 | 77 | 1014.5 |
| 20260509152515 | 64 | 322 | 1.0 | 3.0 | 0.00 | 0.00 | 0.00 | 78 | 1014.4 |
| 20260509151517 | 64 | 0.0 | 0.0 | 0.00 | 0.00 | 0.00 | 79 | 1014.3 |